[[{"header":{"parameterUnit":"m.s-1","parameterCategory":1,"la1":30.2991,"la2":30.254,"lo1":-89.0895,"lo2":-89.0444,"dy":0.0017,"dx":0.0017,"nx":28,"ny":28,"refTime":"2024-12-02T03:00:00:Z","depth":0,"parameterNumber":2,"parameterNumberName":"U-component_of_WINDS"},"data":[0,0,0,0,0,0,0,0,0,0,0,0,0,0,0,0,0,0,0,0,0,0,0,0,0,0,0,0,0,0,0,0,0,0,0,0,0,0,0,0,0,0,0,0,0,0,0,0,0,0,0,0,0,0,0,0,0,0,-2.9784,-2.9784,0,-2.9796,-2.9796,-2.9796,-2.9701,-2.9698,-2.9695,-2.9693,-2.9706,-2.9708,-2.9711,0,0,0,0,0,0,0,0,0,0,0,0,0,-2.968,-2.9682,-2.9784,-2.9784,-2.9785,-2.9796,-2.9796,-2.9796,-2.9701,-2.9698,-2.9694,-2.9691,-2.9705,-2.9708,-2.9712,0,0,0,0,0,0,0,0,0,0,0,0,0,-2.9712,-2.9683,-2.9784,-2.9738,-2.9734,-2.9796,-2.9796,-2.9796,-2.9702,-2.9698,-2.9694,-2.969,-2.9704,-2.9708,-2.9712,-2.9818,0,0,-2.9725,-2.9727,0,0,0,0,0,0,0,0,-2.971,-2.9716,-2.9745,-2.9742,-2.9737,-2.9743,-2.9764,-2.9804,-2.9703,-2.9714,-2.9693,-2.9688,-2.9721,-2.9724,-2.9735,-2.9819,-2.982,-2.9725,-2.9728,-2.973,-2.9731,0,0,0,0,0,0,0,-2.9708,-2.9715,-2.9789,-2.9745,-2.9741,-2.9717,-2.9717,-2.9771,-2.974,-2.9713,-2.9706,-2.9709,-2.9718,-2.9731,-2.9734,-2.982,-2.9725,-2.9729,-2.9732,-2.9733,-2.9992,-2.9996,0,0,0,0,0,0,-2.9712,-2.9713,-2.9788,-2.9789,-2.9713,-2.9722,-2.9723,-2.9745,-2.9739,-2.9734,-2.9712,-2.9704,-2.9726,-2.973,-2.9735,-2.9859,-2.973,-2.9734,-2.9736,-2.9988,-2.9993,-2.9998,0,0,0,0,0,0,-2.971,-2.9719,-2.9788,-2.9749,-2.9756,-2.9728,-2.9754,-2.9747,-2.976,-2.9738,-2.9733,-2.9731,-2.9723,-2.9729,-2.9798,-2.9859,-2.9736,-2.9739,-2.9983,-2.9989,-2.9995,-3.011,0,0,0,0,0,0,-2.9707,-2.9719,-2.976,-2.9751,-2.9759,-2.9852,-2.9758,-2.975,-2.9767,-2.9757,-2.9754,-2.975,-2.972,-2.9792,-2.9803,-2.9862,-2.9743,-2.9977,-2.9986,-2.9993,-3.0101,-3.012,-3.0136,0,0,0,0,0,-2.9704,-2.9792,-2.9762,-2.9772,-2.9808,-2.9855,-2.986,-2.9823,-2.9772,-2.9813,-2.9799,-2.975,-2.985,-2.98,-2.9811,-2.9873,-2.9973,-2.9983,-2.9993,-3.0093,-3.0116,-3.0135,0,0,0,0,0,0,-2.9808,-2.979,-2.9757,-2.9844,-2.9852,-2.9839,-2.9889,-2.9849,-2.9872,-2.9861,-2.9815,-2.9815,-2.9893,-2.9889,-2.9834,-2.9975,-2.9903,-2.9915,-2.9975,-2.9997,-3.0014,-3.0014,-2.9746,0,0,0,0,0,-2.9841,-2.9881,-2.9862,-2.9941,-2.9947,-2.9918,-2.9937,-2.9907,-2.9914,-2.9917,-2.9908,-2.9917,-2.995,-2.9973,-3.0002,-3.0099,-3.0097,-3.0147,-3.0164,-3.0179,-3.019,-3.0242,-3.0264,-3.0029,-3.0029,-3.0029,0,0,-2.991,-2.9905,-2.9933,-2.9962,-2.9965,-3.0007,-2.9921,-2.9969,-3.0001,-2.9924,-2.999,-2.9984,-2.999,-3.0074,-3.0111,-3.0074,-3.0254,-3.0191,-3.0203,-3.0207,-3.0254,-3.0277,-3.0296,-3.0036,-3.0035,-3.0034,0,0,-3.0058,-3.0058,-3.0124,-3.0128,-3.0133,-3.0113,-3.0129,-3.0122,-3.0115,-3.018,-3.0123,-3.016,-3.0217,-3.0224,-3.0236,-3.0385,-3.0342,-3.0396,-3.0488,-3.0539,-3.0558,-3.0574,-3.0629,-3.0649,-3.0407,-3.0408,-3.0408,0,-3.0144,-3.0205,-3.0163,-3.0215,-3.023,-3.0162,-3.0229,-3.0235,-3.025,-3.0262,-3.0219,-3.0291,-3.029,-3.0375,-3.0412,-3.0423,-3.044,-3.0397,-3.0558,-3.0574,-3.0589,-3.064,-3.0661,-3.0414,-3.0414,-3.0413,-3.0412,0,-3.031,-3.0354,-3.0406,-3.0422,-3.0442,-3.0502,-3.0469,-3.0494,-3.0463,-3.0448,-3.0515,-3.0511,-3.0539,-3.0556,-3.0526,-3.0637,-3.0614,-3.0566,-3.0492,-3.0618,-3.0666,-3.0686,-3.0424,-3.0422,-3.042,-3.0418,0,0,-3.0526,-3.0517,-3.0537,-3.0543,-3.0544,-3.0577,-3.0633,-3.0659,-3.0683,-3.0695,-3.0741,-3.0791,-3.0747,-3.0759,-3.0729,-3.0774,-3.0894,-3.072,-3.0719,-3.0754,-3.1017,-3.1055,-3.1079,-3.0864,-3.0868,-3.087,-3.1017,0,-3.0671,-3.0767,-3.073,-3.0829,-3.0869,-3.0804,-3.0853,-3.0859,-3.0845,-3.0877,-3.0862,-3.0899,-3.0836,-3.0844,-3.0885,-3.0871,-3.0947,-3.0859,-3.0908,-3.091,-3.0911,-3.1103,-3.1143,-3.1282,-3.1035,-3.1039,-3.1041,0,-3.0854,-3.0873,-3.0976,-3.0969,-3.0985,-3.103,-3.1051,-3.1082,-3.1087,-3.1074,-3.1088,-3.1048,-3.1103,-3.1028,-3.1103,-3.1045,-3.1062,-3.1058,-3.1063,-3.1067,-3.0985,-3.1115,-3.1325,-3.1347,-3.107,-3.1067,-3.1065,0,-3.1003,-3.1054,-3.1123,-3.113,-3.1123,-3.1157,-3.1155,-3.1156,-3.1175,-3.1193,-3.1205,-3.1229,-3.1244,-3.1264,-3.1232,-3.118,-3.1312,-3.1234,-3.1304,-3.1305,-3.1336,-3.1335,-3.1555,-3.1345,-3.1344,-3.1344,-3.1344,0,-3.117,-3.1236,-3.119,-3.1232,-3.1304,-3.126,-3.1333,-3.1324,-3.1325,-3.1365,-3.131,-3.1348,-3.1303,-3.1337,-3.1312,-3.1379,-3.1385,-3.1377,-3.137,-3.1383,-3.1384,-3.1395,-3.1385,-3.1349,-3.1348,-3.1347,-3.1346,0,-3.135,-3.1321,-3.1392,-3.1379,-3.1378,-3.1431,-3.1421,-3.146,-3.1441,-3.1492,-3.1502,-3.1474,-3.1511,-3.148,-3.1517,-3.15,-3.1589,-3.1567,-3.1588,-3.1582,-3.1654,-3.1649,-3.189,-3.192,-3.1689,-3.1692,-3.1693,0,-3.146,-3.1509,-3.1501,-3.1524,-3.1526,-3.1563,-3.1581,-3.154,-3.1562,-3.1571,-3.1609,-3.1641,-3.1665,-3.1727,-3.1711,-3.1738,-3.1718,-3.18,-3.1722,-3.1733,-3.1721,-3.1719,-3.1724,-3.1817,-3.182,-3.1822,-3.1824,0,-3.1658,-3.1641,-3.1669,-3.1694,-3.1717,-3.1734,-3.1746,-3.1768,-3.1725,-3.1752,-3.179,-3.1808,-3.1845,-3.1878,-3.19,-3.1898,-3.1855,-3.1848,-3.1866,-3.1881,-3.1892,-3.1888,-3.1633,-3.1843,-3.1841,-3.184,-3.1839,-3.1838,-3.1807,-3.1848,-3.1849,-3.1883,-3.1887,-3.19,-3.1936,-3.1922,-3.1953,-3.198,-3.1953,-3.1998,-3.2001,-3.2026,-3.203,-3.2065,-3.2031,-3.2056,-3.2063,-3.2071,-3.2082,-3.1884,-3.2069,-3.2068,-3.2067,-3.2067,-3.2066,0,-3.2004,-3.2001,-3.2032,-3.2051,-3.2078,-3.2033,-3.2044,-3.207,-3.2111,-3.2117,-3.2141,-3.2184,-3.2216,-3.2201,-3.2229,-3.226,-3.2241,-3.2269,-3.2267,-3.2268,-3.211,-3.2093,-3.2284,-3.2284,-3.2284,-3.2284,-3.2284,-3.2284,-3.2109,-3.2176,-3.216,-3.2229,-3.2225,-3.2269,-3.228,-3.2291,-3.2296,-3.2347,-3.2373,-3.2363,-3.2361,-3.2388,-3.2415,-3.241,-3.2423,-3.2459,-3.2447,-3.23,-3.2279,-3.2259,-3.2242,-3.2462,-3.2462,-3.2602,-3.2604,-3.2605]},{"header":{"parameterUnit":"m.s-1","parameterCategory":1,"la1":30.2991,"la2":30.254,"lo1":-89.0895,"lo2":-89.0444,"dy":0.0017,"dx":0.0017,"nx":28,"ny":28,"refTime":"2024-12-02T03:00:00:Z","depth":0,"parameterNumber":3,"parameterNumberName":"V-component_of_WINDS"},"data":[0,0,0,0,0,0,0,0,0,0,0,0,0,0,0,0,0,0,0,0,0,0,0,0,0,0,0,0,0,0,0,0,0,0,0,0,0,0,0,0,0,0,0,0,0,0,0,0,0,0,0,0,0,0,0,0,0,0,-5.6299,-5.63,0,-5.6369,-5.6369,-5.637,-5.6322,-5.632,-5.6318,-5.6316,-5.6383,-5.6386,-5.639,0,0,0,0,0,0,0,0,0,0,0,0,0,-5.612,-5.6124,-5.6299,-5.63,-5.6301,-5.6368,-5.6369,-5.637,-5.6323,-5.632,-5.6318,-5.6315,-5.6382,-5.6386,-5.6391,0,0,0,0,0,0,0,0,0,0,0,0,0,-5.6195,-5.6125,-5.6299,-5.6285,-5.6285,-5.6368,-5.6369,-5.6371,-5.6323,-5.632,-5.6317,-5.6314,-5.638,-5.6386,-5.6391,-5.649,0,0,-5.6408,-5.6411,0,0,0,0,0,0,0,0,-5.619,-5.6201,-5.6286,-5.6286,-5.6286,-5.6334,-5.6331,-5.6411,-5.6324,-5.6309,-5.6316,-5.6312,-5.6369,-5.6375,-5.6395,-5.6494,-5.6496,-5.6409,-5.6412,-5.6415,-5.6416,0,0,0,0,0,0,0,-5.6185,-5.6198,-5.6326,-5.6288,-5.6287,-5.6274,-5.6281,-5.6346,-5.6356,-5.631,-5.6306,-5.6316,-5.6368,-5.639,-5.6396,-5.6497,-5.6409,-5.6414,-5.6417,-5.642,-5.668,-5.6683,0,0,0,0,0,0,-5.6182,-5.6194,-5.6324,-5.6328,-5.623,-5.628,-5.6288,-5.6322,-5.6355,-5.6357,-5.6318,-5.6313,-5.6382,-5.639,-5.6398,-5.6517,-5.6415,-5.642,-5.6423,-5.6676,-5.6681,-5.6684,0,0,0,0,0,0,-5.6178,-5.6194,-5.6321,-5.626,-5.6276,-5.6287,-5.6325,-5.6325,-5.6346,-5.6361,-5.6362,-5.6339,-5.6379,-5.639,-5.6468,-5.6518,-5.6423,-5.6428,-5.6672,-5.6678,-5.6683,-5.6754,0,0,0,0,0,0,-5.6174,-5.6193,-5.6232,-5.6262,-5.6279,-5.6392,-5.6328,-5.6328,-5.6357,-5.6351,-5.6381,-5.6383,-5.6378,-5.646,-5.6474,-5.6524,-5.6432,-5.6668,-5.6675,-5.6681,-5.6747,-5.6761,-5.6773,0,0,0,0,0,-5.6167,-5.6249,-5.6234,-5.625,-5.6328,-5.6395,-5.6404,-5.6398,-5.6361,-5.64,-5.6409,-5.6382,-5.6511,-5.6468,-5.6483,-5.6537,-5.6665,-5.6673,-5.668,-5.6742,-5.6758,-5.6773,0,0,0,0,0,0,-5.6223,-5.6252,-5.6237,-5.6331,-5.6361,-5.6386,-5.6435,-5.6416,-5.6456,-5.6449,-5.6437,-5.6445,-5.6526,-5.6539,-5.6491,-5.6634,-5.6581,-5.6593,-5.6623,-5.6639,-5.6652,-5.6647,-5.6437,0,0,0,0,0,-5.6247,-5.63,-5.6321,-5.6402,-5.6418,-5.6424,-5.6453,-5.6445,-5.6475,-5.6487,-5.6502,-5.6531,-5.6578,-5.6609,-5.6653,-5.6749,-5.6754,-5.6793,-5.6805,-5.6816,-5.6826,-5.6877,-5.6894,-5.671,-5.671,-5.671,0,0,-5.6295,-5.6318,-5.6351,-5.6414,-5.6436,-5.649,-5.6435,-5.6494,-5.6533,-5.6496,-5.657,-5.6583,-5.6614,-5.6701,-5.674,-5.6714,-5.6878,-5.6826,-5.6834,-5.6839,-5.6887,-5.6904,-5.692,-5.6716,-5.6715,-5.6714,0,0,-5.6411,-5.6434,-5.6503,-5.6527,-5.6563,-5.6566,-5.6583,-5.6612,-5.6619,-5.6694,-5.6667,-5.6712,-5.6793,-5.6817,-5.6839,-5.6964,-5.694,-5.6978,-5.7045,-5.7095,-5.711,-5.7122,-5.7167,-5.7183,-5.6988,-5.6988,-5.6988,0,-5.6467,-5.6548,-5.6541,-5.6603,-5.663,-5.66,-5.667,-5.6692,-5.674,-5.6759,-5.6729,-5.683,-5.6849,-5.6941,-5.6972,-5.6991,-5.7009,-5.6975,-5.7109,-5.7121,-5.7133,-5.7175,-5.7192,-5.6993,-5.6992,-5.6992,-5.6991,0,-5.6614,-5.6671,-5.6723,-5.6771,-5.6804,-5.6869,-5.6871,-5.6905,-5.6894,-5.69,-5.6977,-5.6998,-5.7046,-5.7067,-5.7057,-5.7158,-5.7141,-5.711,-5.7057,-5.7155,-5.7194,-5.721,-5.6999,-5.6997,-5.6996,-5.6995,0,0,-5.6768,-5.6811,-5.683,-5.6852,-5.6888,-5.6931,-5.6994,-5.7042,-5.7072,-5.7105,-5.7157,-5.7226,-5.7198,-5.7224,-5.7216,-5.726,-5.7356,-5.7224,-5.7224,-5.7247,-5.7468,-5.7491,-5.751,-5.7341,-5.7344,-5.7346,-5.7466,0,-5.6886,-5.6998,-5.6993,-5.7097,-5.7149,-5.7121,-5.7175,-5.7203,-5.721,-5.7254,-5.7261,-5.731,-5.727,-5.7285,-5.7327,-5.7336,-5.7401,-5.7327,-5.7388,-5.739,-5.7381,-5.753,-5.7555,-5.7666,-5.7481,-5.7483,-5.7485,0,-5.7039,-5.7079,-5.7189,-5.7217,-5.7239,-5.7288,-5.7332,-5.7374,-5.7404,-5.7406,-5.7435,-5.742,-5.7482,-5.7428,-5.7513,-5.7463,-5.7487,-5.7495,-5.7499,-5.7505,-5.7444,-5.754,-5.7702,-5.7718,-5.7509,-5.7507,-5.7506,0,-5.7139,-5.7221,-5.7297,-5.7316,-5.7351,-5.7387,-5.7403,-5.743,-5.7459,-5.7496,-5.7515,-5.7558,-5.7582,-5.7615,-5.7612,-5.7573,-5.7698,-5.7643,-5.77,-5.7701,-5.7728,-5.7726,-5.7896,-5.7744,-5.7744,-5.7743,-5.7743,0,-5.7272,-5.734,-5.7343,-5.739,-5.7465,-5.7458,-5.7532,-5.7543,-5.7568,-5.7615,-5.7593,-5.7637,-5.763,-5.7674,-5.7671,-5.7742,-5.7752,-5.7755,-5.7753,-5.7757,-5.7757,-5.7773,-5.7765,-5.7748,-5.7747,-5.7746,-5.7745,0,-5.7397,-5.7402,-5.7483,-5.751,-5.7519,-5.7573,-5.7595,-5.7639,-5.7644,-5.7704,-5.7718,-5.7726,-5.7777,-5.7776,-5.7834,-5.7832,-5.7918,-5.7908,-5.7909,-5.7907,-5.7964,-5.7958,-5.815,-5.8174,-5.8006,-5.8008,-5.8009,0,-5.7481,-5.7533,-5.7567,-5.7598,-5.7617,-5.7667,-5.7696,-5.7691,-5.7723,-5.7761,-5.78,-5.7849,-5.7888,-5.797,-5.798,-5.8024,-5.8014,-5.8078,-5.802,-5.8022,-5.8015,-5.8012,-5.8017,-5.8089,-5.8091,-5.8093,-5.8094,0,-5.763,-5.763,-5.7675,-5.7721,-5.7758,-5.7794,-5.7826,-5.7852,-5.785,-5.7887,-5.794,-5.797,-5.8029,-5.8078,-5.812,-5.8135,-5.8114,-5.8112,-5.8128,-5.8132,-5.8131,-5.8132,-5.794,-5.8108,-5.8106,-5.8105,-5.8105,-5.8104,-5.7738,-5.7783,-5.7813,-5.7864,-5.7888,-5.7919,-5.7962,-5.7973,-5.8017,-5.8066,-5.806,-5.8118,-5.8146,-5.82,-5.8219,-5.8263,-5.8241,-5.8263,-5.8269,-5.8275,-5.8281,-5.8124,-5.8271,-5.827,-5.827,-5.827,-5.8269,0,-5.7885,-5.7904,-5.7951,-5.7998,-5.8037,-5.8016,-5.8051,-5.8085,-5.8137,-5.8165,-5.8205,-5.8265,-5.8312,-5.8325,-5.837,-5.8403,-5.8395,-5.8415,-5.8413,-5.8416,-5.8299,-5.8281,-5.8422,-5.8422,-5.8422,-5.8421,-5.8421,-5.8421,-5.7967,-5.8042,-5.8045,-5.8131,-5.8148,-5.8207,-5.8229,-5.8257,-5.8279,-5.8348,-5.8388,-5.8397,-5.8419,-5.8465,-5.8507,-5.851,-5.8527,-5.8552,-5.855,-5.844,-5.8425,-5.841,-5.8393,-5.8556,-5.8556,-5.8664,-5.8665,-5.8666]}]]